Meadows Field

Airport
ICAO code: 
KBFL
Summary
ICAO Region: 
NAM
Territory: 
Location: 
Bakersfield, California
Serving: 
Bakersfield
Coordinates: 
Aerial View: 
35° 26' 16.012" N, 119° 3' 8.86" W
Airport LOS: 
Parallel Runway Operation
Metar
Observation
KBFL 210554Z 02003KT 2 1/2SM HZ CLR 10/07 A3024 RMK AO2 TWR VIS 3 SLP241 T01000072 10172 20100 56005
Station
Bakersfield, Meadows Field Airport
Date/Time
2022-01-21 05:54:00
Wind direction
20°
Wind speed
03 kts
Lowest cloud amount
n/a
Temperature
10°C
Dew point
7.2°C
Humidity
82%
Weather condition
haze

International airport located 6 km northwest of the central business district of Bakersfield, California. It is the primary airport serving the Greater Bakersfield metropolitan area and one of two international airports in the San Joaquin Valley.

Climatology

Hot Desert Climate (Köppen climate classification BWh)

Runways

Designator Length Width Surface Rops
12R/30L 1128 23 ASP Yes/Yes
12L/30R 3309 46 ASP Yes/Yes
Airport map: 
Aerial View: 

SKYbrary Partners:

Safety knowledge contributed by: